DateTimeUTC,F1_A11,F1_S11,BsB_S11,BsG_S11,BsR_S11,BbsB_S11,BbsG_S11,BbsR_S11,BaB_A11,BaG_A11,BaR_A11,Tu_S11,T_S11,Uu_S11,U_S11,P_S11,T1_A11
2021-08-30T02:00:00Z,00000200,21000000,,,,,,,0000.22,0000.40,0000.01,17.9,25.2,00.7,00.4,0668.2,30.9
2021-08-30T02:01:00Z,00000200,21000000,,,,,,,0000.04,0000.26,0000.27,17.9,25.2,00.6,00.4,0668.2,30.9
2021-08-30T02:02:00Z,00000200,21000000,,,,,,,0000.51,0000.00,0000.27,17.9,25.2,00.6,00.4,0668.2,30.9
2021-08-30T02:03:00Z,00000200,61000000,,,,,,,-000.07,0000.52,0000.10,18.0,25.2,00.6,00.4,0668.2,30.9
2021-08-30T02:04:00Z,00000200,41000000,0002.98,0002.12,0001.07,0001.18,0000.14,0000.09,0001.08,0000.44,0000.53,18.6,25.2,01.0,00.7,0669.2,31.0
2021-08-30T02:05:00Z,00000200,01000000,0001.71,0001.97,0001.24,0000.26,0000.24,0000.43,0000.36,0000.43,0000.21,18.7,25.2,00.9,00.6,0669.2,31.0
2021-08-30T02:06:00Z,00000200,01000000,0002.08,0001.63,0001.46,0000.33,0000.09,0000.38,0000.32,0000.39,0000.33,18.7,25.2,00.9,00.6,0669.2,31.0
2021-08-30T02:07:00Z,00000200,01000000,0002.60,0002.03,0001.79,0000.77,0000.15,0000.24,0000.17,0000.27,0000.16,18.8,25.2,01.0,00.7,0669.2,31.0
2021-08-30T02:08:00Z,00000200,01000000,0002.29,0002.28,0001.42,0000.75,0000.24,0000.57,0000.69,0000.13,0000.39,18.7,25.2,01.0,00.6,0669.2,31.0
2021-08-30T02:09:00Z,00000200,01000000,0002.00,0001.58,0001.11,0000.17,0000.20,0000.16,0000.12,0000.47,0000.14,18.6,25.1,01.0,00.7,0669.2,31.0
2021-08-30T02:10:00Z,00000200,01000000,0002.67,0001.30,0001.08,0000.11,0000.11,0000.22,0000.31,0000.56,0000.59,18.5,25.1,01.0,00.7,0669.2,30.9
2021-08-30T02:11:00Z,00000200,01000000,0003.10,0001.79,0001.26,0000.25,0000.13,0000.47,0000.68,0000.47,0000.42,18.5,25.1,01.0,00.6,0669.2,30.9
2021-08-30T02:12:00Z,00000200,01000000,0002.52,0001.38,0001.31,0000.52,-000.03,0000.18,0000.21,0000.04,-000.10,18.4,25.0,01.0,00.7,0669.2,30.9
2021-08-30T02:13:00Z,00000200,01000000,0002.20,0001.55,0001.18,0000.48,0000.21,0000.30,0000.41,0000.23,0000.05,18.4,25.0,01.1,00.7,0669.1,30.9
2021-08-30T02:14:00Z,00000200,01000000,0002.59,0001.31,0001.23,0000.69,0000.03,0000.41,0000.58,0000.78,0000.93,18.3,25.0,01.1,00.7,0669.1,30.9
2021-08-30T02:15:00Z,00000200,01000000,0001.93,0001.63,0001.24,0000.67,0000.18,0000.53,0000.42,0000.55,0000.12,18.4,25.0,01.1,00.8,0669.1,30.9
2021-08-30T02:16:00Z,00000200,01000000,0001.79,0001.53,0001.06,-000.09,0000.27,0000.30,0000.56,0000.36,0000.32,18.5,25.0,01.2,00.8,0669.1,30.9
2021-08-30T02:17:00Z,00000200,01000000,0002.36,0001.72,0000.94,0000.27,0000.11,0000.32,0000.45,0000.47,0000.54,18.6,25.0,01.2,00.8,0669.1,30.9
2021-08-30T02:18:00Z,00000200,01000000,0002.29,0001.49,0001.14,-000.07,-000.16,-000.04,0000.44,0000.17,0000.71,18.7,25.1,01.1,00.7,0669.1,31.0
2021-08-30T02:19:00Z,00000200,01000000,0001.61,0001.75,0001.10,0000.32,-000.21,0000.21,0000.32,0000.40,-000.13,18.8,25.1,01.1,00.8,0669.1,31.0
2021-08-30T02:20:00Z,00000200,01000000,0002.07,0001.23,0001.07,0000.53,-000.13,0000.48,0000.52,-000.01,0000.24,18.9,25.2,01.1,00.8,0669.1,31.0
2021-08-30T02:21:00Z,00000200,01000000,0001.43,0001.51,0000.77,0000.19,-000.19,0000.22,-000.03,0000.97,0000.31,19.0,25.2,01.2,00.8,0669.1,31.0
2021-08-30T02:22:00Z,00000200,01000000,0002.46,0001.42,0000.87,0000.43,0000.06,0000.21,0000.56,-000.05,0000.18,19.0,25.3,01.2,00.8,0669.1,31.0
2021-08-30T02:23:00Z,00000200,01000000,0002.43,0001.36,0000.84,0000.20,-000.19,0000.39,-000.18,-000.22,-000.07,18.9,25.2,01.1,00.7,0669.1,31.0
2021-08-30T02:24:00Z,00000200,01000000,0001.38,0001.24,0000.94,0000.60,-000.06,0000.19,0000.11,0000.31,0000.08,18.8,25.2,01.1,00.8,0669.1,31.0
2021-08-30T02:25:00Z,00000200,01000000,0001.31,0001.02,0000.62,0000.43,-000.10,0000.07,0000.16,0000.28,0000.23,18.7,25.2,01.1,00.7,0669.1,31.0
2021-08-30T02:26:00Z,00000200,01000000,0002.15,0001.54,0000.59,0000.83,0000.06,0000.18,0000.40,0000.12,0000.07,18.7,25.2,01.1,00.7,0669.1,31.0
2021-08-30T02:27:00Z,00000200,01000000,0001.28,0001.29,0000.90,0000.23,0000.21,0000.23,0000.31,0000.39,0000.25,18.6,25.1,01.1,00.8,0669.1,30.9
2021-08-30T02:28:00Z,00000200,01000000,0002.18,0001.04,0000.56,-000.09,0000.17,-000.03,0000.51,0000.30,0000.10,18.5,25.1,01.3,00.9,0669.1,30.9
2021-08-30T02:29:00Z,00000200,01000000,0001.68,0001.11,0000.85,-000.48,0000.15,0000.28,0000.32,0000.50,0000.87,18.5,25.0,01.1,00.7,0669.2,30.9
2021-08-30T02:30:00Z,00000200,01000000,0002.52,0001.10,0000.93,0000.35,-000.00,-000.03,0000.23,0000.35,0000.15,18.5,25.0,01.2,00.8,0669.1,30.9
2021-08-30T02:31:00Z,00000200,01000000,0001.15,0001.21,0001.26,0000.22,0000.09,0000.39,0000.38,0000.59,0000.11,18.6,25.0,01.2,00.8,0669.1,30.9
2021-08-30T02:32:00Z,00000200,01000000,0001.34,0001.14,0000.95,0000.80,0000.10,0000.29,0000.47,0000.01,0000.44,18.7,25.1,01.3,00.9,0669.2,31.0
2021-08-30T02:33:00Z,00000200,01000000,0000.77,0001.35,0000.63,0000.75,0000.14,-000.13,0000.33,0000.41,0000.41,18.8,25.2,01.3,00.9,0669.2,31.0
2021-08-30T02:34:00Z,00000200,01000000,0001.75,0001.26,0000.81,0000.46,-000.35,0000.02,0000.44,0000.41,-000.04,18.9,25.2,01.2,00.8,0669.2,31.0
2021-08-30T02:35:00Z,00000200,01000000,0001.95,0000.96,0001.00,0000.45,0000.08,0000.15,0000.21,0000.01,0000.67,18.9,25.2,01.1,00.8,0669.2,31.0
2021-08-30T02:36:00Z,00000200,01000000,0001.25,0000.80,0000.77,0000.67,0000.11,-000.09,0000.12,0000.23,-000.10,18.9,25.2,01.3,00.9,0669.2,31.0
2021-08-30T02:37:00Z,00000200,01000000,0001.94,0001.06,0000.82,0000.38,0000.33,0000.15,0000.19,-000.21,-000.34,18.8,25.2,01.3,00.9,0669.2,31.0
2021-08-30T02:38:00Z,00000200,01000000,0001.24,0000.79,0001.01,0000.63,-000.13,0000.43,0000.34,0000.46,0000.51,18.8,25.2,01.3,00.9,0669.2,31.0
2021-08-30T02:39:00Z,00000200,01000000,0001.53,0000.91,0000.61,0000.17,-000.15,0000.42,-000.05,-000.08,-000.29,18.7,25.1,01.3,00.8,0669.2,31.0
2021-08-30T02:40:00Z,00000200,01000000,0001.66,0001.06,0000.82,0000.56,-000.01,0000.42,0000.10,0000.69,0000.38,18.6,25.1,01.2,00.8,0669.2,30.9
2021-08-30T02:41:00Z,00000200,01000000,0001.38,0001.06,0000.40,0000.18,-000.01,0000.16,0000.28,-000.31,-000.01,18.5,25.1,01.3,00.9,0669.2,30.9
2021-08-30T02:42:00Z,00000200,01000000,0001.45,0000.96,0000.60,0000.79,0000.07,-000.07,0000.25,0000.37,0000.65,18.5,25.1,01.2,00.8,0669.2,30.9
2021-08-30T02:43:00Z,00000200,01000000,0000.74,0000.86,0000.62,0000.03,0000.09,0000.02,0000.37,0000.42,-000.02,18.4,25.0,01.3,00.8,0669.2,30.9
2021-08-30T02:44:00Z,00000200,01000000,0001.08,0001.19,0000.68,0000.59,0000.25,0000.40,0000.46,0000.25,0000.65,18.4,25.0,01.3,00.9,0669.2,30.9
2021-08-30T02:45:00Z,00000200,01000000,0001.52,0000.99,0000.80,0000.51,0000.05,0000.22,0000.20,0000.46,-000.19,18.4,25.0,01.3,00.9,0669.2,30.9
2021-08-30T02:46:00Z,00000200,01000000,0001.51,0000.89,0000.57,0000.30,0000.12,-000.10,0000.28,0000.45,0000.56,18.5,25.0,01.3,00.9,0669.2,30.9
2021-08-30T02:47:00Z,00000200,01000000,0001.63,0000.75,0000.75,0000.49,-000.08,-000.06,0000.46,0000.39,-000.17,18.6,25.1,01.3,00.9,0669.2,31.0
2021-08-30T02:48:00Z,00000200,01000000,0001.24,0001.19,0000.55,0000.12,-000.11,0000.09,0000.32,0000.22,0000.25,18.8,25.1,01.4,00.9,0669.2,31.0
2021-08-30T02:49:00Z,00000200,01000000,0001.09,0000.95,0000.61,-000.19,0000.08,-000.06,-000.08,0000.04,0000.20,18.9,25.2,01.3,00.9,0669.2,31.0
2021-08-30T02:50:00Z,00000200,01000000,0001.99,0000.89,0000.46,0001.04,-000.00,0000.21,0000.53,0000.32,0000.55,18.9,25.2,01.3,00.9,0669.2,31.0
2021-08-30T02:51:00Z,00000200,01000000,0000.41,0000.65,0000.73,0000.70,0000.15,0000.19,-000.11,-000.09,-000.25,18.9,25.2,01.4,00.9,0669.2,31.0
2021-08-30T02:52:00Z,00000200,01000000,0001.28,0000.60,0000.43,0000.44,0000.06,0000.19,0000.16,-000.20,-000.09,18.9,25.2,01.3,00.9,0669.2,31.0
2021-08-30T02:53:00Z,00000200,01000000,0001.87,0000.84,0000.82,0000.32,-000.07,0000.25,0000.01,0000.27,0000.26,18.8,25.2,01.3,00.9,0669.2,31.0
2021-08-30T02:54:00Z,00000200,01000000,0000.99,0001.22,0000.58,0000.56,0000.07,0000.35,0000.14,0000.05,-000.11,18.7,25.1,01.3,00.9,0669.2,30.9
2021-08-30T02:55:00Z,00000200,01000000,0001.43,0000.72,0000.28,0000.14,0000.13,0000.28,0000.18,0000.16,0000.31,18.6,25.1,01.3,00.9,0669.2,30.9
2021-08-30T02:56:00Z,00000200,01000000,0001.45,0000.77,0000.76,-000.43,-000.04,0000.33,-000.07,0000.20,0000.19,18.6,25.1,01.3,00.9,0669.3,30.9
2021-08-30T02:57:00Z,00000200,41000000,,,,,,,0000.08,0000.15,-000.25,18.6,25.1,01.2,00.8,0669.2,30.9
2021-08-30T02:58:00Z,00000200,61000000,,,,,,,-000.10,-000.01,0000.12,18.2,25.2,01.2,00.8,0668.3,30.9
2021-08-30T02:59:00Z,00000200,21000000,,,,,,,0000.57,0000.10,-000.06,18.2,25.3,01.2,00.8,0668.3,30.9
